KC3BHK-2 Weather Reports


Display with metric or nautical units.
time (UTC)temp
F
wind
direction
speed
MPH
gust
MPH
rain 1hr
in
rain 24hr
in
rain mn
in
humidity
%
barometer
mb
20260902185730 75 122 0.0 2.0 0.00 0.00 0.00
20260902185225 75 122 0.0 5.0 0.00 0.00 0.00
20260902184720 78 129 2.0 5.0 0.00 0.00 0.00
20260902184215 79 122 2.0 5.0 0.00 0.00 0.00
20260902183206 78 65 0.0 2.0 0.00 0.00 0.00
20260902182658 77 118 2.0 3.0 0.00 0.00 0.00
20260902182153 78 98 2.0 3.0 0.00 0.00 0.00
20260902181647 77 84 1.0 3.0 0.00 0.00 0.00
20260902181142 77 87 3.0 9.0 0.00 0.00 0.00
20260902180637 78 84 5.0 7.0 0.00 0.00 0.00
20260902180132 80 121 3.0 5.0 0.00 0.00 0.00
20260902175120 78 97 2.0 9.0 0.00 0.00 0.00
20260902174615 80 120 5.0 5.0 0.00 0.00 0.00
20260902174110 80 51 2.0 9.0 0.00 0.00 0.00
20260902173605 78 13 2.0 7.0 0.00 0.00 0.00
20260902173101 77 23 1.0 6.0 0.00 0.00 0.00
20260902172551 74 76 1.0 6.0 0.00 0.00 0.00
20260902172046 71 41 1.0 7.0 0.00 0.00 0.00
20260902171542 70 42 0.0 6.0 0.00 0.00 0.00
20260902171037 69 56 1.0 10.0 0.00 0.00 0.00
20260902170532 71 15 5.0 13.0 0.00 0.00 0.00
20260902170027 77 24 6.0 18.0 0.00 0.00 0.00
20260902165520 82 269 7.0 13.0 0.00 0.00 0.00
20260902165015 84 65 1.0 2.0 0.00 0.00 0.00
20260902164510 86 353 0.0 0.0 0.00 0.00 0.00
20260902164005 84 353 0.0 0.0 0.00 0.00 0.00
20260902162446 86 135 0.0 0.0 0.00 0.00 0.00
20260902161942 87 135 0.0 0.0 0.00 0.00 0.00
20260902161437 85 135 0.0 2.0 0.00 0.00 0.00
20260902160932 85 135 0.0 2.0 0.00 0.00 0.00
20260902160426 87 158 0.0 1.0 0.00 0.00 0.00
20260902155922 87 134 0.0 4.0 0.00 0.00 0.00
20260902155414 86 141 2.0 0.0 0.00 0.00 0.00
20260902154909 87 165 0.0 0.0 0.00 0.00 0.00
20260902154405 88 165 0.0 2.0 0.00 0.00 0.00
20260902153900 89 141 1.0 1.0 0.00 0.00 0.00
20260902153355 89 120 0.0 4.0 0.00 0.00 0.00
20260902152850 88 197 3.0 3.0 0.00 0.00 0.00
20260902152342 88 35 0.0 0.0 0.00 0.00 0.00
20260902150828 88 18 0.0 2.0 0.00 0.00 0.00
20260902150323 87 20 0.0 0.0 0.00 0.00 0.00
20260902145819 87 229 0.0 3.0 0.00 0.00 0.00
20260902145310 88 90 0.0 3.0 0.00 0.00 0.00
20260902144805 86 56 0.0 3.0 0.00 0.00 0.00
20260902144300 86 153 0.0 3.0 0.00 0.00 0.00
20260902143756 85 257 2.0 4.0 0.00 0.00 0.00
20260902143251 87 197 3.0 3.0 0.00 0.00 0.00
20260902142746 88 111 1.0 3.0 0.00 0.00 0.00
20260902142238 86 21 0.0 4.0 0.00 0.00 0.00
20260902141734 85 104 2.0 2.0 0.00 0.00 0.00
20260902141229 84 166 0.0 1.0 0.00 0.00 0.00
20260902140723 84 166 0.0 4.0 0.00 0.00 0.00
20260902140218 84 148 2.0 5.0 0.00 0.00 0.00
20260902135714 85 114 2.0 3.0 0.00 0.00 0.00
20260902135205 83 138 2.0 5.0 0.00 0.00 0.00
20260902134700 84 135 5.0 3.0 0.00 0.00 0.00
20260902134156 82 121 0.0 4.0 0.00 0.00 0.00
20260902133651 82 104 3.0 4.0 0.00 0.00 0.00
20260902133146 82 155 0.0 0.0 0.00 0.00 0.00
20260902132641 81 155 0.0 1.0 0.00 0.00 0.00
20260902132133 81 155 0.0 1.0 0.00 0.00 0.00
20260902131628 80 228 0.0 3.0 0.00 0.00 0.00
20260902131123 80 278 0.0 4.0 0.00 0.00 0.00
20260902130618 80 187 0.0 0.0 0.00 0.00 0.00
20260902130113 79 187 0.0 2.0 0.00 0.00 0.00
20260902125609 79 232 2.0 1.0 0.00 0.00 0.00
20260902124353 77 108 0.0 0.0 0.00 0.00 0.00
20260902124051 77 108 0.0 0.0 0.00 0.00 0.00
20260902123546 77 108 0.0 0.0 0.00 0.00 0.00
20260902123536 75 108 0.0 0.0 0.00 0.00 0.00
20260902123041 75 108 0.0 0.0 0.00 0.00 0.00
20260902122537 75 108 0.0 0.0 0.00 0.00 0.00
20260902122029 74 108 0.0 0.0 0.00 0.00 0.00
20260902121524 73 108 0.0 0.0 0.00 0.00 0.00
20260902121019 74 108 0.0 0.0 0.00 0.00 0.00
20260902120514 73 108 0.0 0.0 0.00 0.00 0.00
20260902115505 71 108 0.0 0.0 0.00 0.00 0.00
20260902114957 72 108 0.0 0.0 0.00 0.00 0.00
20260902114452 70 108 0.0 0.0 0.00 0.00 0.00
20260902113947 70 108 0.0 0.0 0.00 0.00 0.00
20260902113442 70 108 0.0 0.0 0.00 0.00 0.00
20260902112937 71 108 0.0 0.0 0.00 0.00 0.00
20260902112432 69 108 0.0 0.0 0.00 0.00 0.00
20260902111924 69 108 0.0 0.0 0.00 0.00 0.00
20260902111420 71 108 0.0 0.0 0.00 0.00 0.00
20260902110915 70 108 0.0 0.0 0.00 0.00 0.00
20260902110410 69 108 0.0 0.0 0.00 0.00 0.00
20260902105905 69 108 0.0 0.0 0.00 0.00 0.00
20260902105400 70 108 0.0 0.0 0.00 0.00 0.00
20260902104852 70 108 0.0 0.0 0.00 0.00 0.00
20260902104348 71 108 0.0 0.0 0.00 0.00 0.00
20260902103338 69 108 0.0 0.0 0.00 0.00 0.00
20260902102833 70 108 0.0 0.0 0.00 0.00 0.00
20260902102328 71 108 0.0 0.0 0.00 0.00 0.00
20260902101821 71 108 0.0 0.0 0.00 0.00 0.00
20260902101316 70 108 0.0 0.0 0.00 0.00 0.00
20260902100811 70 108 0.0 0.0 0.00 0.00 0.00
20260902100306 71 108 0.0 0.0 0.00 0.00 0.00
20260902095802 69 108 0.0 0.0 0.00 0.00 0.00
20260902095257 72 108 0.0 0.0 0.00 0.00 0.00
20260902094748 71 108 0.0 0.0 0.00 0.00 0.00
20260902094243 71 108 0.0 0.0 0.00 0.00 0.00
20260902093738 71 108 0.0 0.0 0.00 0.00 0.00
20260902093234 71 108 0.0 0.0 0.00 0.00 0.00
20260902092729 71 108 0.0 0.0 0.00 0.00 0.00
20260902091716 72 108 0.0 0.0 0.00 0.00 0.00
20260902091212 72 108 0.0 0.0 0.00 0.00 0.00
20260902090707 72 108 0.0 0.0 0.00 0.00 0.00
20260902090202 72 108 0.0 0.0 0.00 0.00 0.00
20260902085656 73 108 0.0 0.0 0.00 0.00 0.00
20260902084643 73 108 0.0 0.0 0.00 0.00 0.00
20260902084139 72 108 0.0 0.0 0.00 0.00 0.00
20260902083634 72 108 0.0 0.0 0.00 0.00 0.00
20260902083129 72 108 0.0 0.0 0.00 0.00 0.00
20260902082624 72 108 0.0 0.0 0.00 0.00 0.00
20260902082119 73 108 0.0 1.0 0.00 0.00 0.00
20260902081612 72 128 0.0 0.0 0.00 0.00 0.00
20260902081107 73 128 0.0 0.0 0.00 0.00 0.00
20260902080602 72 128 0.0 0.0 0.00 0.00 0.00
20260902080057 72 128 0.0 1.0 0.00 0.00 0.00
20260902075552 73 129 0.0 1.0 0.00 0.00 0.00
20260902075047 73 117 0.0 3.0 0.00 0.00 0.00
20260902074540 73 131 3.0 3.0 0.00 0.00 0.00
20260902074035 72 120 3.0 5.0 0.00 0.00 0.00
20260902073530 72 117 2.0 5.0 0.00 0.00 0.00
20260902073025 71 125 4.0 6.0 0.00 0.00 0.00
20260902072520 72 262 0.0 0.0 0.00 0.00 0.00
20260902072016 72 262 0.0 0.0 0.00 0.00 0.00
20260902071507 71 262 0.0 0.0 0.00 0.00 0.00
20260902071002 71 262 0.0 0.0 0.00 0.00 0.00
20260902070457 70 262 0.0 0.0 0.00 0.00 0.00
20260902065952 71 262 0.0 0.0 0.00 0.00 0.00
20260902065448 71 262 0.0 0.0 0.00 0.00 0.00
20260902064943 71 262 0.0 0.0 0.00 0.00 0.00
20260902064435 71 262 0.0 0.0 0.00 0.00 0.00
20260902063424 72 262 0.0 0.0 0.00 0.00 0.00
20260902062919 73 262 0.0 0.0 0.00 0.00 0.00
20260902062415 72 262 0.0 0.0 0.00 0.00 0.00
20260902061910 72 262 0.0 0.0 0.00 0.00 0.00
20260902061401 73 262 0.0 0.0 0.00 0.00 0.00
20260902060856 72 262 0.0 2.0 0.00 0.00 0.00
20260902060351 74 262 0.0 0.0 0.00 0.00 0.00
20260902055847 73 42 0.0 0.0 0.00 0.00 0.00
20260902055342 73 42 0.0 0.0 0.00 0.00 0.00
20260902054329 73 42 0.0 0.0 0.00 0.00 0.00
20260902053825 74 42 0.0 2.0 0.00 0.00 0.00
20260902053320 74 79 0.0 1.0 0.00 0.00 0.00
20260902052815 75 79 0.0 1.0 0.00 0.00 0.00
20260902052310 75 20 0.0 5.0 0.00 0.00 0.00
20260902051258 75 59 0.0 8.0 0.00 0.00 0.00
20260902050753 76 58 2.0 5.0 0.00 0.00 0.00
20260902050248 77 347 2.0 5.0 0.00 0.00 0.00
20260902045744 76 343 5.0 6.0 0.00 0.00 0.00
20260902045239 78 28 2.0 8.0 0.00 0.00 0.00
20260902044734 78 23 6.0 14.0 0.00 0.00 0.00
20260902044226 79 8 2.0 12.0 0.00 0.00 0.00
20260902043721 79 62 2.0 11.0 0.00 0.00 0.00
20260902043217 80 15 3.0 12.0 0.00 0.00 0.00
20260902042712 82 113 6.0 8.0 0.00 0.00 0.00
20260902042207 81 52 1.0 4.0 0.00 0.00 0.00
20260902041702 80 41 0.0 6.0 0.00 0.00 0.00
20260902041154 80 66 1.0 5.0 0.00 0.00 0.00
20260902040647 81 28 1.0 10.0 0.00 0.00 0.00
20260902040143 82 17 1.0 9.0 0.00 0.00 0.00
20260902035638 82 295 3.0 10.0 0.00 0.00 0.00
20260902035133 82 318 4.0 9.0 0.00 0.00 0.00
20260902034121 82 257 2.0 14.0 0.00 0.00 0.00
20260902033616 82 287 3.0 12.0 0.00 0.00 0.00
20260902033111 80 281 8.0 8.0 0.00 0.00 0.00
20260902032607 80 262 2.0 7.0 0.00 0.00 0.00
20260902032102 80 287 5.0 6.0 0.00 0.00 0.00
20260902031050 81 0 3.0 8.0 0.00 0.00 0.00
20260902030545 81 293 5.0 8.0 0.00 0.00 0.00
20260902030040 81 295 3.0 9.0 0.00 0.00 0.00
20260902025535 81 291 6.0 8.0 0.00 0.00 0.00
20260902025030 82 274 5.0 8.0 0.00 0.00 0.00
20260902024526 81 260 6.0 9.0 0.00 0.00 0.00
20260902024018 82 262 7.0 9.0 0.00 0.00 0.00
20260902023513 81 270 6.0 10.0 0.00 0.00 0.00
20260902023009 82 280 4.0 9.0 0.00 0.00 0.00
20260902022504 82 287 3.0 8.0 0.00 0.00 0.00
20260902021959 82 308 5.0 10.0 0.00 0.00 0.00
20260902021454 83 281 6.0 10.0 0.00 0.00 0.00
20260902020947 83 302 6.0 11.0 0.00 0.00 0.00
20260902020441 82 281 7.0 11.0 0.00 0.00 0.00
20260902015936 83 314 6.0 13.0 0.00 0.00 0.00
20260902015431 82 271 4.0 12.0 0.00 0.00 0.00
20260902014927 82 308 4.0 11.0 0.00 0.00 0.00
20260902014422 83 298 8.0 11.0 0.00 0.00 0.00
20260902013914 82 285 8.0 10.0 0.00 0.00 0.00
20260902013409 83 325 5.0 12.0 0.00 0.00 0.00
20260902012905 85 250 3.0 13.0 0.00 0.00 0.00
20260902012400 84 267 8.0 12.0 0.00 0.00 0.00
20260902011855 85 266 3.0 15.0 0.00 0.00 0.00
20260902010338 83 298 3.0 7.0 0.00 0.00 0.00
20260902005833 82 288 6.0 10.0 0.00 0.00 0.00
20260902005327 85 277 9.0 11.0 0.00 0.00 0.00
20260902004823 84 271 10.0 11.0 0.00 0.00 0.00
20260902004318 84 285 6.0 10.0 0.00 0.00 0.00
20260902003810 85 298 5.0 12.0 0.00 0.00 0.00
20260902003305 85 276 6.0 11.0 0.00 0.00 0.00
20260902002801 84 277 8.0 14.0 0.00 0.00 0.00
20260902002256 84 287 4.0 11.0 0.00 0.00 0.00
20260902001751 83 285 5.0 10.0 0.00 0.00 0.00
20260902001246 85 264 5.0 9.0 0.00 0.00 0.00
20260902000739 85 276 5.0 9.0 0.00 0.00 0.00
20260902000234 84 287 7.0 9.0 0.00 0.00 0.00
20260901235729 84 274 6.0 11.0 0.00 0.00 0.00
20260901235224 84 290 3.0 10.0 0.00 0.00 0.00
20260901234720 86 278 6.0 13.0 0.00 0.00 0.00
20260901234215 85 294 3.0 11.0 0.00 0.00 0.00
20260901233707 85 262 5.0 11.0 0.00 0.00 0.00
20260901233202 86 263 5.0 10.0 0.00 0.00 0.00
20260901232658 86 273 6.0 11.0 0.00 0.00 0.00
20260901231648 86 278 5.0 12.0 0.00 0.00 0.00
20260901231143 87 278 8.0 8.0 0.00 0.00 0.00
20260901230635 86 257 5.0 8.0 0.00 0.00 0.00
20260901225626 89 262 8.0 9.0 0.00 0.00 0.00
20260901225121 89 239 8.0 8.0 0.00 0.00 0.00
20260901224616 89 222 7.0 9.0 0.00 0.00 0.00
20260901224112 89 280 6.0 8.0 0.00 0.00 0.00
20260901223604 90 250 6.0 7.0 0.00 0.00 0.00
20260901222555 88 257 8.0 6.0 0.00 0.00 0.00
20260901222050 89 250 5.0 5.0 0.00 0.00 0.00
20260901221545 89 259 4.0 6.0 0.00 0.00 0.00
20260901221040 91 174 0.0 0.0 0.00 0.00 0.00
20260901220532 91 174 0.0 0.0 0.00 0.00 0.00
20260901220027 91 174 0.0 0.0 0.00 0.00 0.00
20260901215522 89 174 0.0 0.0 0.00 0.00 0.00
20260901215017 91 174 0.0 0.0 0.00 0.00 0.00
20260901214008 92 242 1.0 4.0 0.00 0.00 0.00
20260901213459 91 283 2.0 5.0 0.00 0.00 0.00
20260901212954 91 269 2.0 7.0 0.00 0.00 0.00
20260901212449 91 256 5.0 9.0 0.00 0.00 0.00
20260901211944 92 266 5.0 7.0 0.00 0.00 0.00
20260901211440 94 252 4.0 4.0 0.00 0.00 0.00
20260901210935 95 235 0.0 5.0 0.00 0.00 0.00
20260901210426 97 266 3.0 4.0 0.00 0.00 0.00
20260901205921 99 207 1.0 6.0 0.00 0.00 0.00
20260901205416 99 208 5.0 6.0 0.00 0.00 0.00
20260901204911 99 170 2.0 8.0 0.00 0.00 0.00
20260901204406 98 187 4.0 6.0 0.00 0.00 0.00
20260901203901 99 219 2.0 6.0 0.00 0.00 0.00
20260901203354 97 233 4.0 7.0 0.00 0.00 0.00
20260901202849 98 197 6.0 7.0 0.00 0.00 0.00
20260901202344 97 162 5.0 8.0 0.00 0.00 0.00
20260901201839 95 188 5.0 7.0 0.00 0.00 0.00
20260901201334 97 218 5.0 9.0 0.00 0.00 0.00
20260901200829 97 212 2.0 7.0 0.00 0.00 0.00
20260901200321 94 233 4.0 9.0 0.00 0.00 0.00
20260901195816 94 262 5.0 10.0 0.00 0.00 0.00
20260901195311 96 269 7.0 10.0 0.00 0.00 0.00
20260901194806 98 287 7.0 9.0 0.00 0.00 0.00
20260901194301 97 253 8.0 11.0 0.00 0.00 0.00
20260901193757 95 259 7.0 11.0 0.00 0.00 0.00
20260901193248 95 238 10.0 12.0 0.00 0.00 0.00
20260901192743 96 253 5.0 10.0 0.00 0.00 0.00
20260901192238 97 253 9.0 13.0 0.00 0.00 0.00
20260901191733 96 278 3.0 8.0 0.00 0.00 0.00
20260901191228 96 228 5.0 8.0 0.00 0.00 0.00
20260901190723 97 207 6.0 7.0 0.00 0.00 0.00
20260901190214 97 195 2.0 8.0 0.00 0.00 0.00